Regional Weather Roundup
Issued by NWS

Home | Current Version | Previous Version | Graphics & Text | Print | Product List | Glossary On
Versions: 1 2 3 4 5 6 7 8 9 10 11 12 13 14 15 16 17 18 19 20 21 22 23 24 25 26 27 28 29 30 31 32 33 34 35 36 37 38 39 40 41 42 43 44 45 46 47 48 49 50
000
ASUS43 KIND 221009
RWRIN

WEATHER ROUNDUP FOR INDIANA
NATIONAL WEATHER SERVICE INDIANAPOLIS IN
600 AM EDT TUE JUL 22 2014

NOTE: "FAIR" INDICATES FEW OR NO CLOUDS BELOW 12,000 FEET WITH NO
SIGNIFICANT WEATHER AND/OR OBSTRUCTIONS TO VISIBILITY.

* - STATION DOES NOT REPORT WEATHER SUCH AS PRECIPITATION OR FOG.

+ - STATION NOT QUALITY CONTROLLED BY THE NATIONAL WEATHER SERVICE.
    USE DATA WITH CAUTION...ESPECIALLY DEWPOINT AND RELATIVE
    HUMIDITY OBSERVATIONS.

INZ001>003-010>013-019-020-221100-
NORTHWEST INDIANA

CITY           SKY/WX    TMP DP  RH WIND       PRES   REMARKS
GARY /AIRPORT/ CLEAR     68  64  88 S5        30.07S
KNOX *+        CLEAR     60  58  92 CALM      30.08S
LA PORTE +     CLEAR     61  61 100 CALM      30.09F FOG
MICHIGAN CITY+ CLEAR     63  63 100 CALM      30.07S
MONTICELLO +     N/A     63  62  99 CALM      30.10R FOG
RENSSELAER +   CLEAR     59  59 100 CALM      30.09S FOG
VALPARAISO     CLEAR     65  63  93 S3        30.08F

$$

LMZ046-743>745-221100-
SOUTHERN LAKE MICHIGAN

STATION/POSITION TIME  TEMP WIND        PRES
                       AIR  DIR/SP/G
                 (UTC) (F)  (DEG/KT/KT) (MB)
BURNS HARBOR     1000   70  200/  8/ 12 1018.6R
MICHIGAN CITY    1000   71  150/ 10/ 13   N/A

$$

INZ004-005-014>016-021>024-221100-
NORTH CENTRAL INDIANA

CITY           SKY/WX    TMP DP  RH WIND       PRES   REMARKS
GOSHEN         CLEAR     64  62  93 CALM      30.10S
LOGANSPORT +   CLEAR     59  57  94 SE3       30.12R FOG
PERU/GRISSOM   CLEAR     64  64 100 CALM      30.11R
ROCHESTER +    CLEAR     63  61  94 S3        30.11R
SOUTH BEND     CLEAR     67  62  84 S3        30.09S
WARSAW +       CLEAR     61  61 100 CALM      30.11R FOG

$$

INZ006>009-017-018-025>027-221100-
NORTHEAST INDIANA

CITY           SKY/WX    TMP DP  RH WIND       PRES   REMARKS
ANGOLA *+      CLEAR     63  61  94 CALM      30.11S
AUBURN +       CLEAR     61  59  94 CALM      30.12R
FORT WAYNE     CLEAR     63  59  87 CALM      30.12R
HUNTINGTON +   CLEAR     62  61  97 CALM      30.12R

$$

INZ028-029-035-036-043>045-051>053-221100-
WEST CENTRAL INDIANA

CITY           SKY/WX    TMP DP  RH WIND       PRES   REMARKS
GREENCASTLE +  CLEAR     63  63 100 CALM      30.12R FOG
LAFAYETTE      FOG       62  62 100 CALM      30.11R VSB 3/4
TERRE HAUTE    MOCLDY    63  61  93 CALM      30.10S FOG

$$

INZ030>032-037>040-046>048-054>057-064-065-221100-
CENTRAL INDIANA

CITY           SKY/WX    TMP DP  RH WIND       PRES   REMARKS
CP ATTERBURY + CLEAR     59  59 100 CALM      30.12R FOG
GREENWOOD *+   CLEAR     64  64 100 CALM      30.12
INDIANAPOLIS   CLEAR     69  62  78 CALM      30.11R
-EAGLE CREEK   CLEAR     66  63  90 CALM      30.12R
KOKOMO *+      CLEAR     63  61  94 CALM      30.12R
MARION +       CLEAR     60  59  97 CALM      30.13R FOG
MT COMFORT *+  CLEAR     61 N/A N/A CALM      30.12R
SHELBYVILLE    CLEAR     63  59  87 CALM      30.11R FOG
ZIONSVILLE +   CLEAR     63  60  89 CALM      30.13R FOG

$$

INZ033-034-041-042-049-050-058-059-221100-
EAST CENTRAL INDIANA

CITY           SKY/WX    TMP DP  RH WIND       PRES   REMARKS
MUNCIE         CLEAR     63  60  90 CALM      30.13R

$$

INZ060-061-067>069-081>083-085>088-221100-
SOUTHWEST INDIANA

CITY           SKY/WX    TMP DP  RH WIND       PRES   REMARKS
EVANSVILLE     CLEAR     69  65  86 CALM      30.09R FOG
HUNTINGBURG *+ CLEAR     66  63  88 CALM      30.10R
WASHINGTON +   FOG       63  63 100 CALM      30.10R VSB<1/4

$$

INZ062-063-066-070>080-084-089>092-221100-
SOUTH CENTRAL AND SOUTHEAST INDIANA

CITY           SKY/WX    TMP DP  RH WIND       PRES   REMARKS
BLOOMINGTON    FOG       62  60  93 CALM      30.11R VSB 1/2

$$




USA.gov is the U.S. government's official web portal to all federal, state and local government web resources and services.